Regional Weather Roundup
Issued by NWS

Home | Current Version | Previous Version | Graphics & Text | Print | Product List | Glossary On
Versions: 1 2 3 4 5 6 7 8 9 10 11 12 13 14 15 16 17 18 19 20 21 22 23 24 25 26 27 28 29 30 31 32 33 34 35 36 37 38 39 40 41 42 43 44 45 46 47 48 49 50
000
ASUS43 KLMK 270002
RWRKY
KENTUCKY REGIONAL WEATHER ROUNDUP
NATIONAL WEATHER SERVICE LOUISVILLE KY
800 PM EDT THU MAY 26 2016

NOTE "FAIR" INDICATES FEW OR NO CLOUDS BELOW 12,000 FEET
WITH NO SIGNIFICANT WEATHER AND/OR OBSTRUCTIONS TO VISIBILITY.

KYZ001>023-026-027-061>063-070>075-270100-
WESTERN AND SOUTH CENTRAL KENTUCKY

CITY           SKY/WX    TMP DP  RH WIND       PRES   REMARKS
PADUCAH        CLOUDY    70  65  84 S6        29.95R
HENDERSON      PTSUNNY   70  63  78 SW5       29.89S
OWENSBORO      LGT RAIN  70  66  86 S17       29.92F
HOPKINSVILLE   LGT RAIN  67  65  93 SE12      30.03F
BOWLING GREEN  CLOUDY    68  66  93 S6        30.05F
GLASGOW        NOT AVBL
$$

KYZ024-025-028>034-038-045-046-053-270100-
NORTH CENTRAL KENTUCKY

CITY           SKY/WX    TMP DP  RH WIND       PRES   REMARKS
LOUISVILLE/SDF CLOUDY    70  64  81 SE8       29.99S
LOUISVILLE/LOU CLOUDY    69  64  84 SE6       30.00S
FORT KNOX      CLOUDY    68  64  87 SE8       29.98F
$$

KYZ035>037-039>044-047>052-055>060-089>105-270100-
NORTHEAST KENTUCKY

CITY           SKY/WX    TMP DP  RH WIND       PRES   REMARKS
LEXINGTON      CLOUDY    67  64  90 S3        30.03F
COVINGTON      CLOUDY    69  66  90 S7        29.98F
FRANKFORT      CLOUDY    68  64  87 SE6       30.00F
$$

KYZ054-064>069-076>088-106>120-270100-
SOUTHEAST KENTUCKY

CITY           SKY/WX    TMP DP  RH WIND       PRES   REMARKS
JACKSON        LGT RAIN  70  65  84 CALM      30.09S
LONDON         LGT RAIN  66  62  87 S6        30.11F
SOMERSET       NOT AVBL
MIDDLESBORO    MOCLDY    75  62  62 W3        30.13R
MONTICELLO     LGT RAIN  65  64  97 NE7       30.11F
$$





USA.gov is the U.S. government's official web portal to all federal, state and local government web resources and services.